Showing default

SKYNET 4B, 19687

Orbit data source: Space-Track

SKYNET 4B, 19687 is a payload satellite owned by UK MoD (UK) in GEO that was launched on Sun, 11 Dec 1988 UTC via an ARIANE 44LP launch vehicle from the French Guiana (FRGUI). Payload-class satellites include a variety of spacecraft equipped with specific instruments for various scientific and technological missions. These include communications satellites like Starlink; space stations such as the ISS; scientific satellites like the Hubble; Earth observation satellites from companies like Planet Labs, Umbra, and HawkEye 360; GPS; miniature CubeSats for education and research; and military/defense satellites.

Not visible in the next 10 days
Identifier
19687, 1988-109A
Orbit
GEO
Country
Flag of UKUK
Related business
Manufacturer
BAe
Mission
Non-operational Defense Communications
Bus & Motor
ECS, TE-M-700-19
Mass
1,433 kg wet, 655 kg dry
Launch date (UTC)
1988-12-11 (38 years ago)
Launch vehicle
ARIANE 44LP
Launch site
French Guiana (FRGUI)
Object type
Payload
Rocket body
Debris
Shape & HBR
Hex Poly + 2 Pan, 8.0 m
Radar Cross Section
11.617 m², Large (>1 m²)

Expand to show TLE details & history
Last TLE update: 15 hours ago

TLE from 15 hours ago
0 SKYNET 4B
1 19687U 88109A   26257.00242309 -.00000213  00000-0  00000-0 0  9996
2 19687  13.0191 336.2687 0006137 277.5014  87.4525  0.99676566119057
Epoch: 2026-09-14T00:03Z
TLE epoch observation values (Epoch: 2026-09-14T00:03:29.354Z)
Latitude
1.1262°
Longitude
-12.70355°
Altitude
35,952.597 km
Speed
3.069 km/s
True Right ascension
22h 44m 37s
True Declination
1° 07' 30"
Sunlit
Object was in daylight at epoch
Visualization orbit readout
Latitude
Unknown
Longitude
Unknown
Altitude
Unknown
Speed
Unknown
Apparent Right ascension
Unknown
Apparent Declination
Unknown
Sunlit
N/A
Visualization observer readout
Local Sidereal Time
07:35:42
Azimuth
Unknown
Elevation
Unknown
Doppler factor
Unknown
Orbital elements
Apogee altitude
35,981.253 km
Perigee altitude
35,929.293 km
Semi-major axis
42,333.41 km
Eccentricity
0.00061
Inclination
13.0191°
RAAN
336.2687°
Arg. of periapsis
277.5014°
True anomaly
87.52276°
Mean anomaly
87.4525°
Eccentric anomaly
87.48763°
Mean motion
0.24918 °/min
Orbital period
1,444.72 mins
BSTAR
0
Loading maneuver chart data...
Computing Atmospheric mass density...
Loading historical data...
Loading historical data...
Loading historical data...
Loading historical data...
Loading historical data...
Loading historical data...
Loading historical data...

Documentation

Showing up to 5 results
|